Location: Barbaste
(44.1691°N, 0.2866°E)
Time: 19:43:36
(UTC+00:00)

Daily predictions for brighter satellites

Satellite Brightness Start Highest point End
(mag) Time Altitude Azimuth Time Altitude Azimuth Time Altitude Azimuth
Cosmos 405 Rocket 3.2 16:51:24 10° N 16:55:04 38° ENE 16:58:46 10° SE
Spot 2 4.5 16:53:05 10° S 16:57:32 78° WSW 17:02:20 10° NNW
Cosmos 2154 Rocket 4.3 16:52:14 10° N 16:58:22 49° ENE 17:04:29 10° SSE
Cosmos 1814 Rocket 4.1 16:53:39 10° SSW 16:59:00 86° ESE 17:04:21 10° NNE
Cosmos 1805 Rocket 4.5 16:55:13 10° NNE 16:59:04 28° ENE 17:02:53 10° SE
YAOGAN 6 2.6 16:55:51 10° SSE 16:59:28 63° ENE 17:03:05 10° N
PSLV R/B 4.4 17:01:09 10° S 17:05:15 69° WSW 17:09:22 10° NNW
SMAP 3.1 17:00:47 10° SSE 17:05:20 56° ENE 17:09:54 10° N
Cosmos 2322 Rocket 4.4 17:01:30 10° W 17:05:25 19° NW 17:09:20 10° N
Cosmos 1943 Rocket 3.9 17:03:27 10° NNE 17:05:29 12° NE 17:07:31 10° ENE
Cosmos 1570 Rocket 4.3 17:00:18 10° SSW 17:05:36 72° WNW 17:10:55 10° NNE
SL-16 R/B 3.8 17:03:49 10° SE 17:06:48 15° E 17:09:47 10° ENE
PAYLOAD B 4.3 17:01:12 10° SSE 17:06:49 88° ENE 17:12:26 10° NNW
USA 281 4.1 17:02:09 10° ESE 17:07:29 27° NE 17:12:50 10° N
CZ-4C R/B 3.7 17:11:23 10° N 17:14:58 60° WNW 17:18:32 10° SSW
ATLAS 5 CENTAUR R/B 3.8 17:10:39 10° NW 17:16:12 44° WSW 17:22:32 10° S
NOSS 0 Rocket 4.0 17:10:47 10° SSW 17:16:56 67° ESE 17:23:09 10° NNE
Cosmos 1606 3.6 17:15:17 10° SSE 17:18:38 28° E 17:22:00 10° NNE
Cosmos 405 3.6 17:15:13 10° SSW 17:18:39 57° WNW 17:22:06 10° N
Cosmos 389 Rocket 3.6 17:15:55 10° SE 17:18:41 23° E 17:21:16 11° NE
CREW DRAGON DEMO-1 DEB 4.4 17:16:28 10° NW 17:18:50 21° N 17:20:29 14° NE
Cosmos 2333 Rocket 3.1 17:14:38 10° SW 17:20:09 49° WNW 17:25:40 10° NNE
CZ-2C R/B 4.2 17:17:07 10° ESE 17:20:38 19° ENE 17:24:04 10° NNE
Radarsat Rocket 4.3 17:17:52 10° SSE 17:23:46 76° WSW 17:30:15 10° NNW
NOSS 2-1 (C) 4.4 17:20:05 10° NW 17:25:18 88° NE 17:32:43 10° SE
COSMOS 2428 3.4 17:19:43 10° SW 17:25:22 57° WNW 17:31:02 10° NNE
H-2A R/B 2.3 17:21:50 10° N 17:25:59 71° WNW 17:30:10 10° SSW
Cosmos 2327 Rocket 4.4 17:19:53 10° N 17:26:03 80° E 17:32:16 10° S
Cosmos 2074 Rocket 4.4 17:20:26 10° NNW 17:26:37 69° W 17:32:48 10° S
SKYMED 2 4.5 17:23:11 10° NE 17:26:56 28° E 17:30:39 10° SSE
Landsat 5 4.5 17:24:38 10° N 17:28:52 52° WNW 17:33:11 10° SSW
NOSS 2-1 (D) 4.5 17:25:32 10° NW 17:30:46 86° SW 17:38:13 10° SSE
Cosmos 2298 Rocket 4.1 17:25:51 10° NNW 17:31:12 88° WSW 17:36:30 10° SSE
Cosmos 1862 3.4 17:27:27 10° N 17:31:31 81° W 17:35:31 10° S
Cosmos 1818 3.5 17:26:43 10° NNW 17:32:12 69° NE 17:37:38 10° SE
Cosmos 2150 Rocket 3.9 17:27:50 10° NNW 17:33:02 89° ENE 17:38:10 10° SSE
Lacrosse 5 rocket 3.3 17:32:40 10° SE 17:33:04 10° ESE 17:33:15 10° ESE
SL-8 Rocket 4.4 17:27:54 10° N 17:33:37 37° ENE 17:39:21 10° SE
ADEOS Rocket 4.3 17:26:30 10° N 17:33:55 58° WNW 17:41:29 10° SW
Cosmos 2278 Rocket 2.2 17:29:53 10° NNW 17:35:36 90° ENE 17:41:17 10° SSE
Cosmos 1633 Rocket 3.9 17:33:03 10° NNE 17:36:47 27° ENE 17:40:29 10° SE
CZ-4 R/B 2.5 17:37:52 20° ENE 17:38:06 20° ENE 17:41:04 10° NNE
USA 215 3.3 17:32:16 13° NE 17:38:19 81° SE 17:44:53 10° SW
SAR-Lupe-4 4.2 17:40:59 19° NE 17:42:59 34° E 17:46:16 10° SSE
CZ-2D R/B 3.8 17:42:08 10° SE 17:45:34 33° ENE 17:49:02 10° N
BREEZE-M DEB (TANK) 1.5 17:45:43 10° WSW 17:48:24 73° SSE 17:48:48 50° E
Abrixas rocket 2.1 17:47:41 10° WNW 17:50:25 63° SSW 17:51:40 28° SE
Cosmos 1125 Rocket 3.4 17:45:31 10° NNW 17:50:45 89° ENE 17:55:58 10° SSE
IRS-1C Rocket 4.2 17:45:56 10° SE 17:51:03 53° ENE 17:56:11 10° N
Meteor 2-12 Rocket 4.4 17:44:59 10° N 17:51:10 73° E 17:57:16 10° SSE
Cosmos 2221 4.4 17:47:59 10° SW 17:51:51 31° WNW 17:55:43 10° NNW
Cosmos 1939 Rocket 2.7 17:48:36 10° SSE 17:52:23 58° ENE 17:56:13 10° N
Cosmos 1356 3.4 17:49:05 10° N 17:52:28 54° ENE 17:55:49 10° SSE
Cosmos 1689 Rocket 3.4 17:53:49 25° SE 17:53:49 25° SE 17:55:34 10° SSE
Cosmos 44 4.4 17:49:15 10° NNW 17:53:51 30° NE 17:55:25 25° ENE
ERS-2 2.0 17:51:05 10° NNE 17:54:45 86° E 17:58:25 10° SSW
Cosmos 2219 Rocket 3.8 17:50:27 10° WSW 17:55:24 30° NW 18:00:23 10° N
CZ-4B R/B 4.2 17:51:16 10° S 17:56:27 49° W 18:01:36 10° NNW
ISS -3.6 17:54:37 10° WSW 17:57:58 68° NNW 17:59:04 38° NE
SAR-Lupe-1 4.1 17:58:34 28° NE 18:00:12 54° E 18:03:43 10° S
CZ-4B R/B 1.7 18:00:04 12° N 18:02:48 57° WNW 18:05:50 10° SSW
Cosmos 2237 Rocket 2.4 17:57:26 10° SSW 18:03:02 72° WNW 18:08:37 10° NNE
SL-24 R/B - RUBIN 2 4.4 17:57:34 10° NW 18:03:51 76° WSW 18:09:23 10° SSE
YAOGAN 1 3.1 18:03:52 34° ENE 18:04:09 35° ENE 18:08:05 10° N
NOAA 11 4.5 17:58:57 10° S 18:04:20 69° WSW 18:09:46 10° NNW
GENESIS II 4.1 18:01:30 10° NW 18:05:28 89° NE 18:08:28 16° SE
TELKOM 3 3.4 18:05:40 10° WSW 18:07:59 61° WSW 18:07:59 61° WSW
Okean-O 2.8 18:05:32 10° SE 18:09:46 48° ENE 18:14:03 10° N
USA 267 3.2 18:05:49 19° ESE 18:10:39 70° NE 18:17:09 10° NW
COSMO-SKYMED 1 2.5 18:10:58 11° NNE 18:15:08 90° ESE 18:19:29 10° SSW
SL-24 R/B 3.7 18:13:03 22° NNE 18:15:38 74° ESE 18:19:24 10° S
USA 81 3.9 18:11:51 10° N 18:17:09 74° E 18:22:25 10° S
Cosmos 2218 Rocket 3.9 18:11:22 10° N 18:17:30 67° E 18:23:35 10° SSE
Cosmos 2369 Rocket 3.5 18:13:14 10° N 18:16:39 22° NNE 18:16:39 22° NNE
CSL-04 Rocket 4.1 18:18:45 37° ENE 18:18:45 37° ENE 18:23:27 10° N
Okean O Rocket 3.9 18:19:27 10° SSW 18:23:03 25° W 18:26:41 10° NW
H-2A R/B 2.3 18:23:36 40° ESE 18:24:41 46° ENE 18:29:41 10° N
CZ-4 R/B 4.4 18:20:41 10° SSE 18:24:49 84° WSW 18:29:00 10° NNW
Sich 1 4.2 18:24:15 10° NNW 18:28:27 45° W 18:32:35 10° SSW
Cosmos 1933 3.4 18:25:27 10° SSW 18:29:28 74° W 18:31:27 29° N
Cosmos 2366 rocket 3.8 18:23:44 10° N 18:29:59 79° E 18:36:08 10° S
BREEZE-M DEB (TANK) 4.3 18:27:43 10° SSW 18:29:06 15° S 18:29:06 15° S
PSLV R/B 3.8 18:30:53 45° N 18:32:05 83° WNW 18:36:07 10° SSW
Meteor 1-14 Rocket 4.3 18:30:21 10° N 18:36:09 55° ENE 18:38:09 38° SE
Cosmos 773 Rocket 3.9 18:31:17 10° S 18:36:25 60° ESE 18:36:41 59° E
Cosmos 783 Rocket 4.4 18:35:20 10° SSW 18:40:39 90° WNW 18:42:30 42° NNE
Helios 1A Rocket 2.9 18:37:08 10° S 18:41:10 77° WSW 18:45:12 10° NNW
Cosmos 2297 3.6 18:35:55 10° NNW 18:41:38 83° ENE 18:44:22 33° SSE
Cosmos 1666 Rocket 4.4 18:38:49 10° NNW 18:43:04 50° W 18:47:20 10° SSW
Cosmos 1151 Rocket 3.3 18:41:11 10° SSW 18:45:27 64° WNW 18:46:45 41° NNW
Meteor 1-26 Rocket 4.3 18:42:11 10° S 18:48:11 88° W 18:53:29 14° N
Cosmos 1328 Rocket 3.7 18:44:06 10° SSW 18:48:22 68° W 18:48:55 60° NW
SL-24 DEB 4.4 18:44:39 10° N 18:49:25 72° W 18:54:07 10° SSW
SL-16 R/B 2.2 18:44:27 10° SSW 18:50:07 82° WNW 18:51:51 47° NNE
Cosmos 1943 Rocket 2.4 18:45:00 10° NNW 18:49:30 51° NNE 18:49:30 51° NNE
USA 281 3.4 18:44:57 10° SSE 18:51:28 70° WSW 18:58:02 10° NNW
Cosmos 489 Rocket 4.4 18:48:22 10° S 18:54:17 64° ESE 18:54:17 64° ESE
ARGOS 4.1 18:57:16 34° N 18:57:16 34° N 19:00:18 10° N
MOS 1 Rocket 3.6 18:53:31 37° N 18:55:48 84° WNW 19:01:15 10° SSW
CZ-2C R/B 3.5 18:54:58 10° S 19:00:08 59° W 19:05:03 10° NNW
Cosmos 1867 4.2 19:02:01 10° SW 19:07:18 52° NW 19:08:14 46° NNW
Cosmos 2285 Rocket 4.2 19:01:22 10° NNW 19:07:44 68° WSW 19:13:31 12° S
Lacrosse 5 rocket 3.6 19:07:57 10° SW 19:08:55 17° SW 19:08:55 17° SW
CZ-4 R/B 3.2 19:13:54 28° WNW 19:13:54 28° WNW 19:16:31 10° NNW
USA 215 4.0 19:19:38 37° N 19:21:01 42° NNW 19:27:04 10° W
USA 267 4.3 19:53:12 37° SW 19:53:57 38° SW 19:59:56 10° WNW
Cosmos 2369 Rocket 4.2 19:56:39 10° NNW 19:58:28 21° NW 19:58:28 21° NW
H-2A R/B 4.1 20:04:13 25° W 20:04:17 25° W 20:08:34 10° NW
